contact:dominique.lefevre@mio.osupytheas.fr, maurice.libes@osupytheas.fr, didier.mallarino@osupytheas.fr
Project:EMSO http://www.emso-fr.org/EMSO-France
Depth: 2436.0 m
Title:EMSO Ligure Ouest : Data MII capteur MICROCAT
DateTime_Computer,Latitude,Longitude,Temperature,Conductivity,Pressure,DateTime_Instrument
DateTime_Computer,Latitude,Longitude,degC,S m-1,dbar,DateTime_Instrument
2017-10-27T00:01:30Z,42.805,6.029,13.2982,4.60016,2472.069,2017-10-27T02:02:56Z
2017-10-27T00:03:05Z,42.805,6.029,13.2967,4.59986,2472.069,2017-10-27T02:04:31Z
2017-10-27T00:04:40Z,42.805,6.029,13.2974,4.59986,2472.069,2017-10-27T02:06:06Z
2017-10-27T00:06:15Z,42.805,6.029,13.2968,4.59999,2472.092,2017-10-27T02:07:40Z
2017-10-27T00:07:50Z,42.805,6.029,13.2972,4.59995,2472.069,2017-10-27T02:09:15Z
2017-10-27T00:09:24Z,42.805,6.029,13.2971,4.59981,2472.069,2017-10-27T02:10:50Z
2017-10-27T00:10:59Z,42.805,6.029,13.2981,4.59983,2472.055,2017-10-27T02:12:25Z
2017-10-27T00:12:34Z,42.805,6.029,13.2968,4.59995,2472.032,2017-10-27T02:14:00Z
2017-10-27T00:14:09Z,42.805,6.029,13.2970,4.59995,2472.032,2017-10-27T02:15:35Z
2017-10-27T00:15:44Z,42.805,6.029,13.2977,4.59988,2472.069,2017-10-27T02:17:09Z
2017-10-27T00:17:19Z,42.805,6.029,13.2979,4.59995,2472.032,2017-10-27T02:18:44Z
2017-10-27T00:18:53Z,42.805,6.029,13.2972,4.59995,2472.024,2017-10-27T02:20:19Z
2017-10-27T00:20:28Z,42.805,6.029,13.2982,4.60000,2472.069,2017-10-27T02:21:54Z
2017-10-27T00:22:03Z,42.805,6.029,13.2970,4.60007,2472.069,2017-10-27T02:23:29Z
2017-10-27T00:23:38Z,42.805,6.029,13.2972,4.59987,2472.032,2017-10-27T02:25:04Z
2017-10-27T00:25:13Z,42.805,6.029,13.3003,4.59998,2472.047,2017-10-27T02:26:38Z
2017-10-27T00:26:48Z,42.805,6.029,13.2979,4.59992,2472.024,2017-10-27T02:28:13Z
2017-10-27T00:28:22Z,42.805,6.029,13.3000,4.59998,2472.032,2017-10-27T02:29:48Z
2017-10-27T00:29:57Z,42.805,6.029,13.2986,4.59998,2472.032,2017-10-27T02:31:23Z
2017-10-27T00:31:32Z,42.805,6.029,13.2984,4.59989,2472.069,2017-10-27T02:32:58Z
2017-10-27T00:33:07Z,42.805,6.029,13.2980,4.60021,2472.069,2017-10-27T02:34:33Z
2017-10-27T00:34:42Z,42.805,6.029,13.3000,4.59989,2472.047,2017-10-27T02:36:07Z
2017-10-27T00:36:17Z,42.805,6.029,13.2994,4.59998,2472.047,2017-10-27T02:37:42Z
2017-10-27T00:37:51Z,42.805,6.029,13.2977,4.59992,2472.032,2017-10-27T02:39:17Z
2017-10-27T00:39:26Z,42.805,6.029,13.3000,4.60000,2472.047,2017-10-27T02:40:52Z
2017-10-27T00:41:01Z,42.805,6.029,13.2970,4.60015,2472.069,2017-10-27T02:42:27Z
2017-10-27T00:42:36Z,42.805,6.029,13.3024,4.59999,2472.055,2017-10-27T02:44:02Z
2017-10-27T00:44:11Z,42.805,6.029,13.3004,4.60002,2472.032,2017-10-27T02:45:36Z
2017-10-27T00:45:46Z,42.805,6.029,13.2986,4.59992,2472.047,2017-10-27T02:47:11Z
2017-10-27T00:47:20Z,42.805,6.029,13.2997,4.59995,2472.047,2017-10-27T02:48:46Z
2017-10-27T00:48:55Z,42.805,6.029,13.2998,4.59995,2472.069,2017-10-27T02:50:21Z
2017-10-27T00:50:30Z,42.805,6.029,13.2992,4.59992,2472.024,2017-10-27T02:51:56Z
2017-10-27T00:52:05Z,42.805,6.029,13.2988,4.60001,2472.047,2017-10-27T02:53:31Z
2017-10-27T00:53:40Z,42.805,6.029,13.2993,4.60015,2472.047,2017-10-27T02:55:05Z
2017-10-27T00:55:15Z,42.805,6.029,13.2989,4.60001,2472.032,2017-10-27T02:56:40Z
2017-10-27T00:56:49Z,42.805,6.029,13.2982,4.60009,2472.047,2017-10-27T02:58:15Z
2017-10-27T00:58:24Z,42.805,6.029,13.3002,4.60001,2472.047,2017-10-27T02:59:50Z
2017-10-27T00:59:59Z,42.805,6.029,13.2987,4.60004,2472.062,2017-10-27T03:01:25Z
2017-10-27T01:01:34Z,42.805,6.029,13.2986,4.60021,2472.047,2017-10-27T03:03:00Z
2017-10-27T01:03:09Z,42.805,6.029,13.2985,4.59998,2472.047,2017-10-27T03:04:34Z
2017-10-27T01:04:44Z,42.805,6.029,13.2994,4.60000,2472.047,2017-10-27T03:06:09Z
2017-10-27T01:06:18Z,42.805,6.029,13.2981,4.60009,2472.047,2017-10-27T03:07:44Z
2017-10-27T01:07:53Z,42.805,6.029,13.2985,4.60033,2472.047,2017-10-27T03:09:19Z
2017-10-27T01:09:28Z,42.805,6.029,13.3002,4.60006,2472.062,2017-10-27T03:10:54Z
2017-10-27T01:11:03Z,42.805,6.029,13.3002,4.59997,2472.069,2017-10-27T03:12:29Z
2017-10-27T01:12:38Z,42.805,6.029,13.3002,4.59989,2472.024,2017-10-27T03:14:03Z
2017-10-27T01:14:13Z,42.805,6.029,13.2996,4.59995,2472.047,2017-10-27T03:15:38Z
2017-10-27T01:15:47Z,42.805,6.029,13.3001,4.59998,2472.024,2017-10-27T03:17:13Z
2017-10-27T01:17:22Z,42.805,6.029,13.2975,4.60020,2472.024,2017-10-27T03:18:48Z
2017-10-27T01:18:57Z,42.805,6.029,13.2986,4.60023,2472.024,2017-10-27T03:20:23Z
2017-10-27T01:20:32Z,42.805,6.029,13.2987,4.60006,2472.032,2017-10-27T03:21:58Z
2017-10-27T01:22:07Z,42.805,6.029,13.3008,4.60002,2472.047,2017-10-27T03:23:33Z
2017-10-27T01:23:42Z,42.805,6.029,13.3013,4.60003,2472.032,2017-10-27T03:25:07Z
2017-10-27T01:25:17Z,42.805,6.029,13.2975,4.60021,2472.024,2017-10-27T03:26:42Z
2017-10-27T01:26:51Z,42.805,6.029,13.2982,4.60043,2472.01,2017-10-27T03:28:17Z
2017-10-27T01:28:26Z,42.805,6.029,13.3005,4.60045,2472.047,2017-10-27T03:29:52Z
2017-10-27T01:30:01Z,42.805,6.029,13.3007,4.60010,2472.032,2017-10-27T03:31:27Z
2017-10-27T01:31:36Z,42.805,6.029,13.2996,4.60009,2472.024,2017-10-27T03:33:02Z
2017-10-27T01:33:11Z,42.805,6.029,13.2985,4.60018,2472.01,2017-10-27T03:34:36Z
2017-10-27T01:34:46Z,42.805,6.029,13.2987,4.60002,2472.024,2017-10-27T03:36:11Z
2017-10-27T01:36:20Z,42.805,6.029,13.2985,4.60012,2471.987,2017-10-27T03:37:46Z
2017-10-27T01:37:55Z,42.805,6.029,13.2985,4.60027,2472.032,2017-10-27T03:39:21Z
2017-10-27T01:39:30Z,42.805,6.029,13.2992,4.60026,2472.047,2017-10-27T03:40:56Z
2017-10-27T01:41:05Z,42.805,6.029,13.3007,4.59999,2472.024,2017-10-27T03:42:31Z
2017-10-27T01:42:40Z,42.805,6.029,13.3003,4.60029,2472.01,2017-10-27T03:44:05Z
2017-10-27T01:44:15Z,42.805,6.029,13.2994,4.60006,2472.002,2017-10-27T03:45:40Z
2017-10-27T01:45:49Z,42.805,6.029,13.3005,4.60004,2472.024,2017-10-27T03:47:15Z
2017-10-27T01:47:24Z,42.805,6.029,13.3011,4.60000,2472.047,2017-10-27T03:48:50Z
2017-10-27T01:48:59Z,42.805,6.029,13.3011,4.60010,2472.024,2017-10-27T03:50:25Z
2017-10-27T01:50:34Z,42.805,6.029,13.2998,4.59997,2472.002,2017-10-27T03:52:00Z
2017-10-27T01:52:09Z,42.805,6.029,13.2995,4.60015,2472.024,2017-10-27T03:53:34Z
2017-10-27T01:53:44Z,42.805,6.029,13.2985,4.59998,2472.002,2017-10-27T03:55:09Z
2017-10-27T01:55:18Z,42.805,6.029,13.3001,4.60015,2472.024,2017-10-27T03:56:44Z
2017-10-27T01:56:53Z,42.805,6.029,13.3003,4.60009,2472.024,2017-10-27T03:58:19Z
2017-10-27T01:58:28Z,42.805,6.029,13.2996,4.59998,2472.024,2017-10-27T03:59:54Z
2017-10-27T02:00:03Z,42.805,6.029,13.3009,4.60002,2472.024,2017-10-27T04:01:29Z
2017-10-27T02:01:38Z,42.805,6.029,13.2995,4.60012,2472.024,2017-10-27T04:03:03Z
2017-10-27T02:03:13Z,42.805,6.029,13.2996,4.60008,2472.024,2017-10-27T04:04:38Z
2017-10-27T02:04:47Z,42.805,6.029,13.2999,4.60003,2472.024,2017-10-27T04:06:13Z
2017-10-27T02:06:22Z,42.805,6.029,13.2998,4.60009,2472.002,2017-10-27T04:07:48Z
2017-10-27T02:07:57Z,42.805,6.029,13.3010,4.60012,2472.024,2017-10-27T04:09:23Z
2017-10-27T02:09:32Z,42.805,6.029,13.3012,4.60021,2472.024,2017-10-27T04:10:58Z
2017-10-27T02:11:07Z,42.805,6.029,13.3000,4.60015,2472.002,2017-10-27T04:12:32Z
2017-10-27T02:12:42Z,42.805,6.029,13.3022,4.60001,2472.024,2017-10-27T04:14:07Z
2017-10-27T02:14:16Z,42.805,6.029,13.2978,4.60007,2472.047,2017-10-27T04:15:42Z
2017-10-27T02:15:51Z,42.805,6.029,13.2981,4.59989,2472.016,2017-10-27T04:17:17Z
2017-10-27T02:17:26Z,42.805,6.029,13.2982,4.59988,2472.024,2017-10-27T04:18:52Z
2017-10-27T02:19:01Z,42.805,6.029,13.2973,4.59986,2471.979,2017-10-27T04:20:27Z
2017-10-27T02:20:36Z,42.805,6.029,13.2975,4.60018,2472.024,2017-10-27T04:22:01Z
2017-10-27T02:22:11Z,42.805,6.029,13.2978,4.60001,2472.024,2017-10-27T04:23:36Z
2017-10-27T02:23:45Z,42.805,6.029,13.2991,4.60012,2471.979,2017-10-27T04:25:11Z
2017-10-27T02:25:20Z,42.805,6.029,13.2999,4.60007,2472.024,2017-10-27T04:26:46Z
2017-10-27T02:26:55Z,42.805,6.029,13.3000,4.60015,2472.002,2017-10-27T04:28:21Z
2017-10-27T02:28:30Z,42.805,6.029,13.3013,4.60016,2472.01,2017-10-27T04:29:56Z
2017-10-27T02:30:05Z,42.805,6.029,13.3012,4.59998,2472.002,2017-10-27T04:31:30Z
2017-10-27T02:31:40Z,42.805,6.029,13.3005,4.59997,2472.047,2017-10-27T04:33:05Z
2017-10-27T02:33:14Z,42.805,6.029,13.2996,4.60038,2472.01,2017-10-27T04:34:40Z
2017-10-27T02:34:49Z,42.805,6.029,13.2985,4.60027,2472.002,2017-10-27T04:36:15Z
2017-10-27T02:36:24Z,42.805,6.029,13.3004,4.60001,2472.002,2017-10-27T04:37:50Z
2017-10-27T02:37:59Z,42.805,6.029,13.3017,4.60001,2471.987,2017-10-27T04:39:25Z
2017-10-27T02:39:34Z,42.805,6.029,13.3021,4.60021,2472.039,2017-10-27T04:40:59Z
2017-10-27T02:41:09Z,42.805,6.029,13.3006,4.60001,2471.979,2017-10-27T04:42:34Z
2017-10-27T02:42:43Z,42.805,6.029,13.2993,4.59992,2471.979,2017-10-27T04:44:09Z
2017-10-27T02:44:18Z,42.805,6.029,13.3002,4.59999,2471.979,2017-10-27T04:45:44Z
2017-10-27T02:45:53Z,42.805,6.029,13.2997,4.60032,2472.039,2017-10-27T04:47:19Z
2017-10-27T02:47:28Z,42.805,6.029,13.3002,4.59998,2472.002,2017-10-27T04:48:54Z
2017-10-27T02:49:03Z,42.805,6.029,13.2998,4.60003,2472.002,2017-10-27T04:50:28Z
2017-10-27T02:50:38Z,42.805,6.029,13.2986,4.59988,2472.002,2017-10-27T04:52:03Z
2017-10-27T02:52:12Z,42.805,6.029,13.2988,4.59989,2471.964,2017-10-27T04:53:38Z
2017-10-27T02:53:47Z,42.805,6.029,13.3009,4.59993,2472.002,2017-10-27T04:55:13Z
2017-10-27T02:55:22Z,42.805,6.029,13.2990,4.59990,2472.024,2017-10-27T04:56:48Z
2017-10-27T02:56:57Z,42.805,6.029,13.2987,4.59999,2472.002,2017-10-27T04:58:23Z
2017-10-27T02:58:32Z,42.805,6.029,13.2987,4.60006,2472.016,2017-10-27T04:59:57Z
2017-10-27T03:00:07Z,42.805,6.029,13.2985,4.59994,2472.002,2017-10-27T05:01:32Z
2017-10-27T03:01:41Z,42.805,6.029,13.3003,4.60009,2472.002,2017-10-27T05:03:07Z
2017-10-27T03:03:16Z,42.805,6.029,13.3009,4.60003,2472.024,2017-10-27T05:04:42Z
2017-10-27T03:04:51Z,42.805,6.029,13.3004,4.60017,2472.002,2017-10-27T05:06:17Z
2017-10-27T03:06:26Z,42.805,6.029,13.3026,4.60037,2472.024,2017-10-27T05:07:52Z
2017-10-27T03:08:01Z,42.805,6.029,13.3021,4.60001,2472.01,2017-10-27T05:09:27Z
2017-10-27T03:09:36Z,42.805,6.029,13.3033,4.60009,2471.979,2017-10-27T05:11:01Z
2017-10-27T03:11:11Z,42.805,6.029,13.3040,4.60001,2472.002,2017-10-27T05:12:36Z
2017-10-27T03:12:45Z,42.805,6.029,13.3034,4.59992,2472.002,2017-10-27T05:14:11Z
2017-10-27T03:14:20Z,42.805,6.029,13.3035,4.59987,2471.971,2017-10-27T05:15:46Z
2017-10-27T03:15:55Z,42.805,6.029,13.3040,4.60006,2471.979,2017-10-27T05:17:21Z
2017-10-27T03:17:30Z,42.805,6.029,13.3027,4.60003,2472.024,2017-10-27T05:18:56Z
2017-10-27T03:19:05Z,42.805,6.029,13.3006,4.60001,2471.987,2017-10-27T05:20:30Z
2017-10-27T03:20:40Z,42.805,6.029,13.2992,4.60003,2472.002,2017-10-27T05:22:05Z
2017-10-27T03:22:14Z,42.805,6.029,13.2967,4.59991,2471.979,2017-10-27T05:23:40Z
2017-10-27T03:23:49Z,42.805,6.029,13.2995,4.60023,2472.016,2017-10-27T05:25:15Z
2017-10-27T03:25:24Z,42.805,6.029,13.2979,4.60005,2472.002,2017-10-27T05:26:50Z
2017-10-27T03:26:59Z,42.805,6.029,13.2986,4.60001,2472.002,2017-10-27T05:28:25Z
2017-10-27T03:28:34Z,42.805,6.029,13.3042,4.60054,2472.002,2017-10-27T05:29:59Z
2017-10-27T03:30:09Z,42.805,6.029,13.3009,4.59998,2472.002,2017-10-27T05:31:34Z
2017-10-27T03:31:43Z,42.805,6.029,13.2989,4.59989,2471.979,2017-10-27T05:33:09Z
2017-10-27T03:33:18Z,42.805,6.029,13.3024,4.60018,2471.979,2017-10-27T05:34:44Z
2017-10-27T03:34:53Z,42.805,6.029,13.3010,4.59999,2471.979,2017-10-27T05:36:19Z
2017-10-27T03:36:28Z,42.805,6.029,13.3009,4.60003,2471.987,2017-10-27T05:37:54Z
2017-10-27T03:38:03Z,42.805,6.029,13.3017,4.60012,2472.016,2017-10-27T05:39:28Z
2017-10-27T03:39:38Z,42.805,6.029,13.3024,4.59999,2472.002,2017-10-27T05:41:03Z
2017-10-27T03:41:12Z,42.805,6.029,13.3025,4.60023,2471.979,2017-10-27T05:42:38Z
2017-10-27T03:42:47Z,42.805,6.029,13.3021,4.60067,2471.987,2017-10-27T05:44:13Z
2017-10-27T03:44:22Z,42.805,6.029,13.3006,4.60065,2472.002,2017-10-27T05:45:48Z
2017-10-27T03:45:57Z,42.805,6.029,13.2975,4.60023,2471.994,2017-10-27T05:47:23Z
2017-10-27T03:47:32Z,42.805,6.029,13.2988,4.60029,2471.979,2017-10-27T05:48:57Z
2017-10-27T03:49:07Z,42.805,6.029,13.2957,4.60064,2472.002,2017-10-27T05:50:32Z
2017-10-27T03:50:41Z,42.805,6.029,13.2972,4.60059,2471.987,2017-10-27T05:52:07Z
2017-10-27T03:52:16Z,42.805,6.029,13.2982,4.60032,2471.979,2017-10-27T05:53:42Z
2017-10-27T03:53:51Z,42.805,6.029,13.2985,4.59995,2471.979,2017-10-27T05:55:17Z
2017-10-27T03:55:26Z,42.805,6.029,13.2996,4.60017,2471.964,2017-10-27T05:56:52Z
2017-10-27T03:57:01Z,42.805,6.029,13.3016,4.60013,2471.979,2017-10-27T05:58:26Z
2017-10-27T03:58:36Z,42.805,6.029,13.3012,4.60009,2471.964,2017-10-27T06:00:01Z
2017-10-27T04:00:10Z,42.805,6.029,13.3005,4.59990,2471.987,2017-10-27T06:01:36Z
2017-10-27T04:01:45Z,42.805,6.029,13.2986,4.59986,2471.979,2017-10-27T06:03:11Z
2017-10-27T04:03:20Z,42.805,6.029,13.2982,4.59985,2472.024,2017-10-27T06:04:46Z
2017-10-27T04:04:55Z,42.805,6.029,13.3007,4.59984,2471.964,2017-10-27T06:06:21Z
2017-10-27T04:06:30Z,42.805,6.029,13.3018,4.60009,2471.979,2017-10-27T06:07:55Z
2017-10-27T04:08:05Z,42.805,6.029,13.2991,4.59990,2471.994,2017-10-27T06:09:30Z
2017-10-27T04:09:39Z,42.805,6.029,13.3001,4.59984,2472.002,2017-10-27T06:11:05Z
2017-10-27T04:11:14Z,42.805,6.029,13.2982,4.59982,2471.979,2017-10-27T06:12:40Z
2017-10-27T04:12:49Z,42.805,6.029,13.2996,4.59979,2472.002,2017-10-27T06:14:15Z
2017-10-27T04:14:24Z,42.805,6.029,13.2986,4.59984,2472.002,2017-10-27T06:15:50Z
2017-10-27T04:15:59Z,42.805,6.029,13.3008,4.59988,2471.979,2017-10-27T06:17:24Z
2017-10-27T04:17:34Z,42.805,6.029,13.3015,4.59995,2471.979,2017-10-27T06:18:59Z
2017-10-27T04:19:08Z,42.805,6.029,13.3029,4.60006,2472.002,2017-10-27T06:20:34Z
2017-10-27T04:20:43Z,42.805,6.029,13.3031,4.60035,2471.964,2017-10-27T06:22:09Z
2017-10-27T04:22:18Z,42.805,6.029,13.3026,4.60026,2471.994,2017-10-27T06:23:44Z
2017-10-27T04:23:53Z,42.805,6.029,13.3020,4.60005,2471.979,2017-10-27T06:25:19Z
2017-10-27T04:25:28Z,42.805,6.029,13.2993,4.60009,2471.979,2017-10-27T06:26:53Z
2017-10-27T04:27:03Z,42.805,6.029,13.2989,4.60025,2471.979,2017-10-27T06:28:28Z
2017-10-27T04:28:37Z,42.805,6.029,13.2957,4.60055,2471.964,2017-10-27T06:30:03Z
2017-10-27T04:30:12Z,42.805,6.029,13.2969,4.60049,2472.002,2017-10-27T06:31:38Z
2017-10-27T04:31:47Z,42.805,6.029,13.2984,4.60001,2471.979,2017-10-27T06:33:13Z
2017-10-27T04:33:22Z,42.805,6.029,13.2985,4.60004,2472.002,2017-10-27T06:34:48Z
2017-10-27T04:34:57Z,42.805,6.029,13.2993,4.60003,2471.979,2017-10-27T06:36:22Z
2017-10-27T04:36:32Z,42.805,6.029,13.3002,4.60037,2471.979,2017-10-27T06:37:57Z
2017-10-27T04:38:07Z,42.805,6.029,13.3009,4.59985,2471.979,2017-10-27T06:39:32Z
2017-10-27T04:39:41Z,42.805,6.029,13.3019,4.60041,2471.979,2017-10-27T06:41:07Z
2017-10-27T04:41:16Z,42.805,6.029,13.3033,4.60146,2471.979,2017-10-27T06:42:42Z
2017-10-27T04:42:51Z,42.805,6.029,13.3056,4.60033,2471.979,2017-10-27T06:44:17Z
2017-10-27T04:44:26Z,42.805,6.029,13.3047,4.59994,2471.979,2017-10-27T06:45:52Z
2017-10-27T04:46:01Z,42.805,6.029,13.2976,4.59995,2471.957,2017-10-27T06:47:26Z
2017-10-27T04:47:36Z,42.805,6.029,13.2968,4.60040,2471.979,2017-10-27T06:49:01Z
2017-10-27T04:49:10Z,42.805,6.029,13.2973,4.60060,2472.002,2017-10-27T06:50:36Z
2017-10-27T04:50:45Z,42.805,6.029,13.2991,4.60058,2471.979,2017-10-27T06:52:11Z
2017-10-27T04:52:20Z,42.805,6.029,13.3006,4.60046,2471.979,2017-10-27T06:53:46Z
2017-10-27T04:53:55Z,42.805,6.029,13.3002,4.60014,2471.957,2017-10-27T06:55:21Z
2017-10-27T04:55:30Z,42.805,6.029,13.2999,4.60113,2471.979,2017-10-27T06:56:55Z
2017-10-27T04:57:05Z,42.805,6.029,13.2988,4.60094,2471.957,2017-10-27T06:58:30Z
2017-10-27T04:58:39Z,42.805,6.029,13.3004,4.60077,2471.957,2017-10-27T07:00:05Z
2017-10-27T05:00:14Z,42.805,6.029,13.3006,4.60070,2471.979,2017-10-27T07:01:40Z
2017-10-27T05:01:49Z,42.805,6.029,13.3029,4.60049,2471.979,2017-10-27T07:03:15Z
2017-10-27T05:03:24Z,42.805,6.029,13.2995,4.60080,2471.979,2017-10-27T07:04:50Z
2017-10-27T05:04:59Z,42.805,6.029,13.2999,4.60086,2471.979,2017-10-27T07:06:24Z
2017-10-27T05:06:34Z,42.805,6.029,13.2973,4.60046,2471.979,2017-10-27T07:07:59Z
2017-10-27T05:08:08Z,42.805,6.029,13.2961,4.60024,2471.957,2017-10-27T07:09:34Z
2017-10-27T05:09:43Z,42.805,6.029,13.2967,4.60046,2471.942,2017-10-27T07:11:09Z
2017-10-27T05:11:18Z,42.805,6.029,13.2969,4.60034,2471.979,2017-10-27T07:12:44Z
2017-10-27T05:12:53Z,42.805,6.029,13.2980,4.60053,2471.979,2017-10-27T07:14:19Z
2017-10-27T05:14:28Z,42.805,6.029,13.2979,4.60105,2471.979,2017-10-27T07:15:53Z
2017-10-27T05:16:03Z,42.805,6.029,13.2987,4.60066,2471.987,2017-10-27T07:17:28Z
2017-10-27T05:17:37Z,42.805,6.029,13.2987,4.60032,2472.002,2017-10-27T07:19:03Z
2017-10-27T05:19:12Z,42.805,6.029,13.2988,4.60055,2472.002,2017-10-27T07:20:38Z
2017-10-27T05:20:47Z,42.805,6.029,13.3001,4.60018,2471.979,2017-10-27T07:22:13Z
2017-10-27T05:22:22Z,42.805,6.029,13.3019,4.60034,2472.002,2017-10-27T07:23:48Z
2017-10-27T05:23:57Z,42.805,6.029,13.3021,4.60034,2471.934,2017-10-27T07:25:22Z
2017-10-27T05:25:32Z,42.805,6.029,13.3020,4.60094,2471.957,2017-10-27T07:26:57Z
2017-10-27T05:27:06Z,42.805,6.029,13.3025,4.60063,2471.979,2017-10-27T07:28:32Z
2017-10-27T05:28:41Z,42.805,6.029,13.3027,4.60036,2471.979,2017-10-27T07:30:07Z
2017-10-27T05:30:16Z,42.805,6.029,13.2991,4.60057,2471.957,2017-10-27T07:31:42Z
2017-10-27T05:31:51Z,42.805,6.029,13.3006,4.60036,2471.957,2017-10-27T07:33:17Z
2017-10-27T05:33:26Z,42.805,6.029,13.3016,4.60027,2471.979,2017-10-27T07:34:51Z
2017-10-27T05:35:01Z,42.805,6.029,13.3008,4.60000,2471.957,2017-10-27T07:36:26Z
2017-10-27T05:36:35Z,42.805,6.029,13.3023,4.60026,2472.002,2017-10-27T07:38:01Z
2017-10-27T05:38:10Z,42.805,6.029,13.3024,4.60032,2471.934,2017-10-27T07:39:36Z
2017-10-27T05:39:45Z,42.805,6.029,13.3030,4.60037,2471.979,2017-10-27T07:41:11Z
2017-10-27T05:41:20Z,42.805,6.029,13.2985,4.60039,2471.957,2017-10-27T07:42:46Z
2017-10-27T05:42:55Z,42.805,6.029,13.2997,4.60012,2471.964,2017-10-27T07:44:20Z
2017-10-27T05:44:30Z,42.805,6.029,13.2994,4.60035,2471.964,2017-10-27T07:45:55Z
2017-10-27T05:46:04Z,42.805,6.029,13.2996,4.60017,2472.002,2017-10-27T07:47:30Z
2017-10-27T05:47:39Z,42.805,6.029,13.3019,4.60037,2471.957,2017-10-27T07:49:05Z
2017-10-27T05:49:14Z,42.805,6.029,13.3004,4.60053,2471.957,2017-10-27T07:50:40Z
2017-10-27T05:50:49Z,42.805,6.029,13.2980,4.60060,2471.979,2017-10-27T07:52:15Z
2017-10-27T05:52:24Z,42.805,6.029,13.2983,4.60079,2471.957,2017-10-27T07:53:49Z
2017-10-27T05:53:59Z,42.805,6.029,13.2992,4.60013,2471.979,2017-10-27T07:55:24Z
2017-10-27T05:55:33Z,42.805,6.029,13.3001,4.60018,2471.979,2017-10-27T07:56:59Z
2017-10-27T05:57:08Z,42.805,6.029,13.3008,4.60047,2471.957,2017-10-27T07:58:34Z
2017-10-27T05:58:43Z,42.805,6.029,13.3012,4.60016,2471.957,2017-10-27T08:00:09Z
2017-10-27T06:00:18Z,42.805,6.029,13.3029,4.60006,2471.934,2017-10-27T08:01:44Z
2017-10-27T06:01:53Z,42.805,6.029,13.2995,4.60044,2471.964,2017-10-27T08:03:18Z
2017-10-27T06:03:28Z,42.805,6.029,13.3008,4.60016,2471.957,2017-10-27T08:04:53Z
2017-10-27T06:05:02Z,42.805,6.029,13.3023,4.59992,2471.964,2017-10-27T08:06:28Z
2017-10-27T06:06:37Z,42.805,6.029,13.3006,4.60069,2471.979,2017-10-27T08:08:03Z
2017-10-27T06:08:12Z,42.805,6.029,13.2998,4.60044,2471.942,2017-10-27T08:09:38Z
2017-10-27T06:09:47Z,42.805,6.029,13.3025,4.60048,2471.919,2017-10-27T08:11:13Z
2017-10-27T06:11:22Z,42.805,6.029,13.3018,4.60066,2472.002,2017-10-27T08:12:47Z
2017-10-27T06:12:57Z,42.805,6.029,13.2998,4.60081,2472.016,2017-10-27T08:14:22Z
2017-10-27T06:14:31Z,42.805,6.029,13.3003,4.60058,2472.002,2017-10-27T08:15:57Z
2017-10-27T06:16:06Z,42.805,6.029,13.3006,4.60102,2471.979,2017-10-27T08:17:32Z
2017-10-27T06:17:41Z,42.805,6.029,13.2999,4.60062,2471.979,2017-10-27T08:19:07Z
2017-10-27T06:19:16Z,42.805,6.029,13.3004,4.60046,2471.979,2017-10-27T08:20:42Z
2017-10-27T06:20:51Z,42.805,6.029,13.2982,4.60074,2471.979,2017-10-27T08:22:16Z
2017-10-27T06:22:26Z,42.805,6.029,13.2987,4.60077,2471.964,2017-10-27T08:23:51Z
2017-10-27T06:24:01Z,42.805,6.029,13.2986,4.60036,2471.979,2017-10-27T08:25:26Z
2017-10-27T06:25:35Z,42.805,6.029,13.2998,4.60027,2471.934,2017-10-27T08:27:01Z
2017-10-27T06:27:10Z,42.805,6.029,13.2984,4.60026,2471.987,2017-10-27T08:28:36Z
2017-10-27T06:28:45Z,42.805,6.029,13.2994,4.60044,2471.979,2017-10-27T08:30:11Z
2017-10-27T06:30:20Z,42.805,6.029,13.2993,4.60048,2471.964,2017-10-27T08:31:46Z
2017-10-27T06:31:55Z,42.805,6.029,13.2979,4.60053,2471.979,2017-10-27T08:33:20Z
2017-10-27T06:33:30Z,42.805,6.029,13.2993,4.60029,2471.979,2017-10-27T08:34:55Z
2017-10-27T06:35:04Z,42.805,6.029,13.2979,4.60028,2471.957,2017-10-27T08:36:30Z
2017-10-27T06:36:39Z,42.805,6.029,13.2988,4.60036,2471.979,2017-10-27T08:38:05Z
2017-10-27T06:38:14Z,42.805,6.029,13.2986,4.60040,2471.957,2017-10-27T08:39:40Z
2017-10-27T06:39:49Z,42.805,6.029,13.2989,4.60049,2471.979,2017-10-27T08:41:15Z
2017-10-27T06:41:24Z,42.805,6.029,13.2993,4.60053,2471.979,2017-10-27T08:42:49Z
2017-10-27T06:42:59Z,42.805,6.029,13.2997,4.60035,2472.002,2017-10-27T08:44:24Z
2017-10-27T06:44:33Z,42.805,6.029,13.2978,4.60045,2472.002,2017-10-27T08:45:59Z
2017-10-27T06:46:08Z,42.805,6.029,13.2989,4.60031,2471.979,2017-10-27T08:47:34Z
2017-10-27T06:47:43Z,42.805,6.029,13.2992,4.60027,2471.979,2017-10-27T08:49:09Z
2017-10-27T06:49:18Z,42.805,6.029,13.3005,4.60018,2471.979,2017-10-27T08:50:44Z
2017-10-27T06:50:53Z,42.805,6.029,13.2994,4.60066,2471.957,2017-10-27T08:52:18Z
2017-10-27T06:52:28Z,42.805,6.029,13.3019,4.60029,2471.957,2017-10-27T08:53:53Z
2017-10-27T06:54:02Z,42.805,6.029,13.2985,4.60034,2472.002,2017-10-27T08:55:28Z
2017-10-27T06:55:37Z,42.805,6.029,13.3003,4.60029,2471.979,2017-10-27T08:57:03Z
2017-10-27T06:57:12Z,42.805,6.029,13.2986,4.60015,2471.979,2017-10-27T08:58:38Z
2017-10-27T06:58:47Z,42.805,6.029,13.2989,4.60018,2471.957,2017-10-27T09:00:13Z
2017-10-27T07:00:22Z,42.805,6.029,13.2973,4.60065,2471.979,2017-10-27T09:01:47Z
2017-10-27T07:01:57Z,42.805,6.029,13.2984,4.60034,2472.002,2017-10-27T09:03:22Z
2017-10-27T07:03:31Z,42.805,6.029,13.2977,4.60018,2472.016,2017-10-27T09:04:57Z
2017-10-27T07:05:06Z,42.805,6.029,13.2989,4.60036,2471.979,2017-10-27T09:06:32Z
2017-10-27T07:06:41Z,42.805,6.029,13.2994,4.60092,2471.979,2017-10-27T09:08:07Z
2017-10-27T07:08:16Z,42.805,6.029,13.2989,4.60037,2471.979,2017-10-27T09:09:42Z
2017-10-27T07:09:51Z,42.805,6.029,13.2988,4.60018,2471.979,2017-10-27T09:11:16Z
2017-10-27T07:11:26Z,42.805,6.029,13.2992,4.60035,2471.957,2017-10-27T09:12:51Z
2017-10-27T07:13:00Z,42.805,6.029,13.2998,4.60003,2471.964,2017-10-27T09:14:26Z
2017-10-27T07:14:35Z,42.805,6.029,13.2974,4.60012,2471.979,2017-10-27T09:16:01Z
2017-10-27T07:16:10Z,42.805,6.029,13.2990,4.60003,2471.979,2017-10-27T09:17:36Z
2017-10-27T07:17:45Z,42.805,6.029,13.2960,4.60041,2471.964,2017-10-27T09:19:11Z
2017-10-27T07:19:20Z,42.805,6.029,13.2985,4.60040,2471.964,2017-10-27T09:20:45Z
2017-10-27T07:20:55Z,42.805,6.029,13.2988,4.60009,2471.979,2017-10-27T09:22:20Z
2017-10-27T07:22:29Z,42.805,6.029,13.2997,4.60007,2471.979,2017-10-27T09:23:55Z
2017-10-27T07:24:04Z,42.805,6.029,13.2995,4.60050,2471.979,2017-10-27T09:25:30Z
2017-10-27T07:25:39Z,42.805,6.029,13.2973,4.60027,2471.964,2017-10-27T09:27:05Z
2017-10-27T07:27:14Z,42.805,6.029,13.2973,4.60011,2471.987,2017-10-27T09:28:40Z
2017-10-27T07:28:49Z,42.805,6.029,13.2979,4.60040,2471.964,2017-10-27T09:30:14Z
2017-10-27T07:30:24Z,42.805,6.029,13.2981,4.60017,2472.01,2017-10-27T09:31:49Z
2017-10-27T07:31:58Z,42.805,6.029,13.2992,4.60030,2471.979,2017-10-27T09:33:24Z
2017-10-27T07:33:33Z,42.805,6.029,13.3005,4.60010,2471.979,2017-10-27T09:34:59Z
2017-10-27T07:35:08Z,42.805,6.029,13.3015,4.60017,2471.979,2017-10-27T09:36:34Z
2017-10-27T07:36:43Z,42.805,6.029,13.3041,4.60026,2472.002,2017-10-27T09:38:09Z
2017-10-27T07:38:18Z,42.805,6.029,13.3018,4.60017,2472.002,2017-10-27T09:39:43Z
2017-10-27T07:39:53Z,42.805,6.029,13.3002,4.60005,2471.979,2017-10-27T09:41:18Z
2017-10-27T07:41:27Z,42.805,6.029,13.2979,4.60038,2471.979,2017-10-27T09:42:53Z
2017-10-27T07:43:02Z,42.805,6.029,13.2979,4.60052,2471.971,2017-10-27T09:44:28Z
2017-10-27T07:44:37Z,42.805,6.029,13.2985,4.60057,2471.979,2017-10-27T09:46:03Z
2017-10-27T07:46:12Z,42.805,6.029,13.2991,4.60040,2471.964,2017-10-27T09:47:38Z